User: anonymous   Login
Location: Carbonear
(47.7333°N, 53.2500°W)
Time: 09:01:15
(UTC+00:00)
Language:

XW-2F - Orbit

View from above orbital plane
View from above orbital plane
View from above satellite
View from above satellite

Ground track
Ground track

The orbit data is extracted from the following two-line orbital elements,

1 40910U 15049M   22329.81314991  .00009490  00000-0  36634-3 0  9994
2 40910  97.4718 336.4458 0013881 122.1356   3.4631 15.26403877397768
Epoch (UTC): 25 November 2022 19:30:56
Eccentricity: 0.0013881
inclination: 97.4718°
perigee height: 477 km
apogee height: 496 km
right ascension of ascending node: 336.4458°
argument of perigee: 122.1356°
revolutions per day: 15.26403877
mean anomaly at epoch: 3.4631°
orbit number at epoch: 39776

The dashed part of the orbit path shows where the satellite is in the earth's shadow,  

DLR